Weather History for KORL - November, 2012

Change the Weather History Date:

Monday, November 12, 2012

  Actual Average (KMCO) Record (KMCO)
Temperature  
Mean Temperature 70 °F 69 °F  
Max Temperature 79 °F 79 °F 88 °F (2002)
Min Temperature 62 °F 59 °F 35 °F (1913)
Degree Days  
Heating Degree Days 0 1  
Month to date heating degree days 12  
Since 1 July heating degree days 17  
Cooling Degree Days 6 5  
Month to date cooling degree days 74  
Year to date cooling degree days 3281  
Growing Degree Days 20 (Base 50)    
Moisture  
Dew Point 62 °F    
Average Humidity 80    
Maximum Humidity 94    
Minimum Humidity 56    
Precipitation  
Precipitation 0.00 in 0.07 in 0.87 in (1937)
Month to date precipitation 0.90  
Year to date precipitation 46.88  
Sea Level Pressure  
Sea Level Pressure 30.23 in    
Wind  
Wind Speed 5 mph (East)    
Max Wind Speed 15 mph    
Max Gust Speed 17 mph    
Visibility 10 miles    
Events      
T = Trace of Precipitation, MM = Missing Value Source: NWS Daily Summary

Daily Weather History Graph

Daily Weather History Graph

Search for Another Location

Airport or City:

Trip Planner

Search our weather history database for the weather conditions in past years. The results will help you decide how hot, cold, wet, or windy it might be!

Date:

Astronomy

Nov. 12, 2012 Rise Set
Actual Time 6:45 AM EST 5:32 PM EST
Civil Twilight 6:21 AM EST 5:57 PM EST
Nautical Twilight 5:52 AM EST 6:26 PM EST
Astronomical Twilight 5:24 AM EST 6:54 PM EST
Moon 5:14 AM EST (11/12) 4:34 PM EST (11/12)
Length of Visible Light 11h 36m
Length of Day
10h 47m
Waning Crescent, 2% of the Moon is Illuminated
Nov 12
Waning Crescent
Nov 13
New
Nov 20
First Quarter
Nov 28
Full
Dec 6
Last Quarter

Hourly Weather History & Observations

Time (EST) Temp. Dew Point Humidity Pressure Visibility Wind Dir Wind Speed Gust Speed Precip Events Conditions
12:53 AM 66.9 °F 63.0 °F 87% 30.25 in 10.0 mi East 8.1 mph - N/A   Mostly Cloudy
1:53 AM 64.9 °F 62.1 °F 90% 30.24 in 10.0 mi East 3.5 mph - N/A   Clear
2:44 AM 64.4 °F 60.8 °F 88% 30.22 in 10.0 mi ENE 3.5 mph - N/A   Mostly Cloudy
2:53 AM 64.0 °F 61.0 °F 90% 30.23 in 10.0 mi ENE 3.5 mph - N/A   Overcast
3:21 AM 66.2 °F 62.6 °F 88% 30.22 in 10.0 mi NNE 3.5 mph - N/A   Scattered Clouds
3:53 AM 66.0 °F 62.1 °F 87% 30.23 in 10.0 mi Calm Calm - N/A   Mostly Cloudy
4:53 AM 66.0 °F 63.0 °F 90% 30.22 in 10.0 mi East 4.6 mph - N/A   Overcast
5:53 AM 64.0 °F 61.0 °F 90% 30.23 in 10.0 mi Calm Calm - N/A   Partly Cloudy
6:11 AM 62.6 °F 60.8 °F 94% 30.22 in 10.0 mi ENE 3.5 mph - N/A   Mostly Cloudy
6:34 AM 62.6 °F 60.8 °F 94% 30.23 in 10.0 mi Calm Calm - N/A   Scattered Clouds
6:53 AM 64.0 °F 61.0 °F 90% 30.25 in 10.0 mi Calm Calm - N/A   Partly Cloudy
7:19 AM 62.6 °F 60.8 °F 94% 30.24 in 8.0 mi Calm Calm - N/A   Mostly Cloudy
7:45 AM 64.4 °F 62.6 °F 94% 30.24 in 10.0 mi Calm Calm - N/A   Overcast
7:53 AM 66.0 °F 63.0 °F 90% 30.26 in 10.0 mi ENE 3.5 mph - N/A   Overcast
8:53 AM 70.0 °F 64.9 °F 84% 30.27 in 10.0 mi East 6.9 mph - N/A   Overcast
9:53 AM 73.9 °F 63.0 °F 68% 30.28 in 10.0 mi SE 3.5 mph - N/A   Overcast
10:53 AM 78.1 °F 64.9 °F 64% 30.27 in 10.0 mi ESE 11.5 mph 17.3 mph N/A   Scattered Clouds
11:53 AM 79.0 °F 63.0 °F 58% 30.25 in 10.0 mi SE 15.0 mph - N/A   Overcast
12:53 PM 79.0 °F 62.1 °F 56% 30.23 in 10.0 mi East 10.4 mph - N/A   Mostly Cloudy
1:53 PM 78.1 °F 63.0 °F 60% 30.21 in 10.0 mi ESE 9.2 mph - N/A   Overcast
2:53 PM 79.0 °F 63.0 °F 58% 30.20 in 10.0 mi SE 10.4 mph - N/A   Overcast
3:53 PM 77.0 °F 64.9 °F 66% 30.19 in 10.0 mi East 12.7 mph - N/A   Partly Cloudy
4:53 PM 75.9 °F 63.0 °F 64% 30.19 in 10.0 mi East 10.4 mph - N/A   Partly Cloudy
5:53 PM 73.0 °F 62.1 °F 68% 30.20 in 10.0 mi East 6.9 mph - N/A   Clear
6:53 PM 70.0 °F 62.1 °F 76% 30.21 in 10.0 mi ENE 4.6 mph - N/A   Clear
7:53 PM 69.1 °F 63.0 °F 81% 30.22 in 10.0 mi East 3.5 mph - N/A   Clear
8:53 PM 68.0 °F 62.1 °F 81% 30.22 in 10.0 mi Calm Calm - N/A   Clear
9:53 PM 69.1 °F 63.0 °F 81% 30.22 in 10.0 mi NNE 3.5 mph - N/A   Clear
10:53 PM 66.0 °F 63.0 °F 90% 30.22 in 10.0 mi Calm Calm - N/A   Clear
11:53 PM 64.0 °F 61.0 °F 90% 30.20 in 10.0 mi Calm Calm - N/A   Clear